INMARSAT GX5

导读

INMARSAT GX5卫星是国际海事卫星组织(Inmarsat)Global Xpress系列的第五颗对地静止高通量卫星,也是该公司截至目前性能最强、容量最大的现役卫星,是其服役的第14颗卫星,于2019年11月26日发射。它总容量是GX1-GX4总和的两倍,为欧洲及中东地区提供Ka频段高速卫星宽带服务,重点支撑海事、航空及离岸领域需求,增强了全球高速移动宽带网络的覆盖能力与服务稳定性。

Basic Information
目录编号:
44801
目录名称:
INMARSAT GX5
国际标识:
2019-080B
轨道中心:
EARTH
卫星名称:
INMARSAT GX5
卫星全名:
--
卫星状态:
在轨 (已飞行2435 天)
发射日期:
2019-11-26 UTC
国别 :
(Inmarsat)
星等 :
--
Orbit Information
数据来源 国际轨道数据 AOE轨道数据
星历时间 2026-07-27T20:50:39+0800
10小时前
查看轨道信息
2026-07-27T10:00:00+0800
21小时前
查看轨道信息
半长轴 42164.252km 42164.28km
偏心率 0.0002433 0.0002418
轨道倾角 0.044° 0.043°
近地点辐角 95.243° 94.721°
升交点赤经 38.407° 38.820°
平近点角 15.234° 212.230°
近地点 35775.856km 35775.947km
远地点 35796.374km 35796.339km
周期 1436.072分钟 1436.074分钟
每日圈数 1.002735 1.002734
Detailed Information
使用方式:
暂无
2D Orbit Map
3D Orbit Map
Orbit Altitude Analysis Chart
Orbit Inclination Analysis Chart
Orbit Comprehensive Analysis Chart
View Comprehensive Chart